Change the Weather History Date:

Thursday, November 8, 2012

  Actual Average Record
Temperature  
Mean Temperature 45 °F -  
Max Temperature 55 °F 44 °F 78 °F (1999)
Min Temperature 33 °F 25 °F 1 °F (2003)
Degree Days  
Heating Degree Days 20    
Moisture  
Dew Point 32 °F    
Average Humidity 66    
Maximum Humidity 87    
Minimum Humidity 44    
Precipitation  
Precipitation 0.00 in - - ()
Sea Level Pressure  
Sea Level Pressure 29.91 in    
Wind  
Wind Speed 14 mph (NW)    
Max Wind Speed 24 mph    
Max Gust Speed 30 mph    
Visibility 10 miles    
Events      
Averages and records for this station are not official NWS values.
T = Trace of Precipitation, MM = Missing Value Source: NWS Daily Summary

Daily Weather History Graph

Daily Weather History Graph

Search for Another Location

Airport or City:

Trip Planner

Search our weather history database for the weather conditions in past years. The results will help you decide how hot, cold, wet, or windy it might be!

Date:

Astronomy

Nov. 08, 2012 Rise Set
Actual Time 7:10 AM CST 5:02 PM CST
Civil Twilight 6:39 AM CST 5:33 PM CST
Nautical Twilight 6:05 AM CST 6:08 PM CST
Astronomical Twilight 5:30 AM CST 6:42 PM CST
Moon 12:53 AM CST (11/8) 1:56 PM CST (11/8)
Length of Visible Light 10h 53m
Length of Day
9h 52m
Waning Crescent, 32% of the Moon is Illuminated
Nov 8
Waning Crescent
Nov 13
New
Nov 20
First Quarter
Nov 28
Full
Dec 6
Last Quarter

Hourly Weather History & Observations

Time (CST) Temp. Windchill Dew Point Humidity Pressure Visibility Wind Dir Wind Speed Gust Speed Precip Events Conditions
12:15 AM 37.4 °F 29.8 °F 30.2 °F 75% 29.91 in 10.0 mi SSE 11.5 mph - N/A   Clear
12:35 AM 37.4 °F 30.3 °F 30.2 °F 75% 29.91 in 10.0 mi SSE 10.4 mph - N/A   Clear
12:55 AM 37.4 °F 28.5 °F 30.2 °F 75% 29.90 in 10.0 mi SSE 15.0 mph - N/A   Clear
1:15 AM 37.4 °F 28.5 °F 30.2 °F 75% 29.90 in 10.0 mi SSE 15.0 mph - N/A   Clear
1:35 AM 37.4 °F 28.5 °F 30.2 °F 75% 29.88 in 10.0 mi SSE 15.0 mph - N/A   Clear
1:55 AM 37.4 °F 28.5 °F 30.2 °F 75% 29.88 in 10.0 mi SSE 15.0 mph 19.6 mph N/A   Clear
2:15 AM 37.4 °F 27.8 °F 28.4 °F 70% 29.87 in 10.0 mi South 17.3 mph - N/A   Clear
2:35 AM 39.2 °F 29.3 °F 30.2 °F 70% 29.85 in 10.0 mi South 20.7 mph - N/A   Clear
2:55 AM 39.2 °F 29.8 °F 28.4 °F 65% 29.85 in 10.0 mi South 18.4 mph 24.2 mph N/A   Clear
3:15 AM 41.0 °F 32.5 °F 28.4 °F 61% 29.84 in 10.0 mi South 17.3 mph 24.2 mph N/A   Clear
3:35 AM 42.8 °F 34.8 °F 30.2 °F 61% 29.83 in 10.0 mi South 17.3 mph - N/A   Clear
3:55 AM 42.8 °F 33.8 °F 30.2 °F 61% 29.82 in 10.0 mi South 21.9 mph 28.8 mph N/A   Clear
4:15 AM 42.8 °F 33.8 °F 30.2 °F 61% 29.82 in 10.0 mi SSW 21.9 mph 27.6 mph N/A   Clear
4:35 AM 42.8 °F 33.3 °F 30.2 °F 61% 29.81 in 10.0 mi SSW 24.2 mph 29.9 mph N/A   Clear
4:55 AM 41.0 °F 30.9 °F 30.2 °F 65% 29.81 in 10.0 mi SSW 24.2 mph - N/A   Clear
5:15 AM 41.0 °F 31.6 °F 30.2 °F 65% 29.82 in 10.0 mi SSW 20.7 mph 26.5 mph N/A   Clear
5:35 AM 41.0 °F 33.5 °F 30.2 °F 65% 29.83 in 10.0 mi South 13.8 mph - N/A   Clear
5:55 AM 41.0 °F 34.7 °F 30.2 °F 65% 29.83 in 10.0 mi South 10.4 mph 18.4 mph N/A   Clear
6:15 AM 41.0 °F 34.3 °F 28.4 °F 61% 29.83 in 10.0 mi South 11.5 mph - N/A   Clear
6:55 AM 39.2 °F 34.2 °F 30.2 °F 70% 29.84 in 10.0 mi South 6.9 mph - N/A   Clear
7:15 AM 39.2 °F 33.6 °F 30.2 °F 70% 29.85 in 10.0 mi SSW 8.1 mph - N/A   Clear
7:35 AM 39.2 °F 32.5 °F 30.2 °F 70% 29.86 in 10.0 mi SSW 10.4 mph - N/A   Clear
7:55 AM 39.2 °F 32.0 °F 30.2 °F 70% 29.87 in 10.0 mi SSW 11.5 mph - N/A   Clear
8:15 AM 41.0 °F 35.8 °F 30.2 °F 65% 29.87 in 10.0 mi South 8.1 mph - N/A   Clear
8:35 AM 42.8 °F 38.0 °F 30.2 °F 61% 29.89 in 10.0 mi South 8.1 mph - N/A   Clear
8:55 AM 44.6 °F 40.2 °F 30.2 °F 57% 29.89 in 10.0 mi SSW 8.1 mph - N/A   Clear
9:15 AM 46.4 °F 42.9 °F 32.0 °F 57% 29.89 in 10.0 mi SW 6.9 mph - N/A   Clear
9:35 AM 46.4 °F 41.5 °F 30.2 °F 53% 29.89 in 10.0 mi SW 10.4 mph - N/A   Clear
9:55 AM 48.2 °F - 32.0 °F 54% 29.89 in 10.0 mi WSW 10.4 mph - N/A   Clear
10:15 AM 48.2 °F - 33.8 °F 58% 29.89 in 10.0 mi WSW 10.4 mph - N/A   Clear
10:35 AM 50.0 °F - 32.0 °F 50% 29.89 in 10.0 mi West 10.4 mph - N/A   Clear
10:55 AM 51.8 °F - 32.0 °F 47% 29.90 in 10.0 mi West 8.1 mph - N/A   Clear
11:15 AM 51.8 °F - 32.0 °F 47% 29.90 in 10.0 mi West 9.2 mph - N/A   Clear
11:35 AM 53.6 °F - 32.0 °F 44% 29.89 in 10.0 mi NNW 9.2 mph - N/A   Clear
11:55 AM 53.6 °F - 33.8 °F 47% 29.88 in 10.0 mi NW 11.5 mph - N/A   Clear
12:15 PM 53.6 °F - 33.8 °F 47% 29.88 in 10.0 mi NNW 12.7 mph - N/A   Clear
12:35 PM 53.6 °F - 33.8 °F 47% 29.88 in 10.0 mi North 12.7 mph - N/A   Clear
12:55 PM 53.6 °F - 35.6 °F 51% 29.89 in 10.0 mi North 12.7 mph - N/A   Clear
1:15 PM 53.6 °F - 33.8 °F 47% 29.89 in 10.0 mi North 12.7 mph - N/A   Clear
1:35 PM 53.6 °F - 35.6 °F 51% 29.89 in 10.0 mi North 13.8 mph - N/A   Clear
1:55 PM 55.4 °F - 35.6 °F 47% 29.89 in 10.0 mi North 12.7 mph - N/A   Clear
2:15 PM 53.6 °F - 35.6 °F 51% 29.90 in 10.0 mi North 13.8 mph - N/A   Clear
2:35 PM 53.6 °F - 35.6 °F 51% 29.90 in 10.0 mi North 16.1 mph - N/A   Clear
2:55 PM 53.6 °F - 35.6 °F 51% 29.91 in 10.0 mi North 12.7 mph - N/A   Clear
3:15 PM 53.6 °F - 35.6 °F 51% 29.91 in 10.0 mi North 13.8 mph - N/A   Clear
3:35 PM 51.8 °F - 35.6 °F 54% 29.92 in 10.0 mi North 18.4 mph - N/A   Clear
3:55 PM 51.8 °F - 35.6 °F 54% 29.92 in 10.0 mi North 18.4 mph - N/A   Clear
4:15 PM 50.0 °F - 37.4 °F 62% 29.93 in 10.0 mi North 17.3 mph - N/A   Clear
4:35 PM 46.4 °F 39.2 °F 35.6 °F 66% 29.94 in 10.0 mi North 18.4 mph 24.2 mph N/A   Clear
4:55 PM 44.6 °F 37.4 °F 35.6 °F 71% 29.95 in 10.0 mi NNW 16.1 mph - N/A   Clear
5:15 PM 42.8 °F 35.8 °F 35.6 °F 76% 29.97 in 10.0 mi North 13.8 mph - N/A   Clear
5:35 PM 42.8 °F 35.8 °F 33.8 °F 70% 29.97 in 10.0 mi NNW 13.8 mph - N/A   Clear
5:55 PM 41.0 °F 34.3 °F 33.8 °F 76% 29.98 in 10.0 mi NNW 11.5 mph - N/A   Clear
6:15 PM 41.0 °F 33.5 °F 33.8 °F 76% 29.98 in 10.0 mi North 13.8 mph - N/A   Clear
6:35 PM 39.2 °F 31.2 °F 33.8 °F 81% 29.99 in 10.0 mi NNW 13.8 mph - N/A   Mostly Cloudy
6:55 PM 39.2 °F 30.8 °F 33.8 °F 81% 29.99 in 10.0 mi North 15.0 mph 19.6 mph N/A   Overcast
7:15 PM 39.2 °F 31.2 °F 33.8 °F 81% 29.99 in 10.0 mi North 13.8 mph - N/A   Overcast
7:35 PM 39.2 °F 31.2 °F 33.8 °F 81% 29.98 in 10.0 mi North 13.8 mph - N/A   Overcast
7:55 PM 39.2 °F 31.2 °F 33.8 °F 81% 29.99 in 10.0 mi North 13.8 mph - N/A   Overcast
8:15 PM 39.2 °F 30.5 °F 33.8 °F 81% 29.99 in 10.0 mi North 16.1 mph - N/A   Overcast
8:35 PM 39.2 °F 32.5 °F 33.8 °F 81% 29.99 in 10.0 mi North 10.4 mph - N/A   Overcast
8:55 PM 39.2 °F 32.0 °F 33.8 °F 81% 29.99 in 10.0 mi North 11.5 mph - N/A   Scattered Clouds
9:15 PM 37.4 °F 31.4 °F 33.8 °F 87% 30.00 in 10.0 mi North 8.1 mph - N/A   Clear
9:35 PM 37.4 °F 30.8 °F 32.0 °F 81% 30.00 in 10.0 mi NNW 9.2 mph - N/A   Partly Cloudy
9:55 PM 37.4 °F 30.8 °F 33.8 °F 87% 30.00 in 10.0 mi North 9.2 mph - N/A   Clear
10:15 PM 37.4 °F 31.4 °F 32.0 °F 81% 30.00 in 10.0 mi NNW 8.1 mph - N/A   Clear
10:35 PM 35.6 °F 29.2 °F 30.2 °F 81% 30.00 in 10.0 mi NNW 8.1 mph - N/A   Partly Cloudy
10:55 PM 35.6 °F 28.6 °F 30.2 °F 81% 30.00 in 10.0 mi NNW 9.2 mph - N/A   Scattered Clouds
11:15 PM 35.6 °F 28.6 °F 30.2 °F 81% 29.99 in 10.0 mi North 9.2 mph - N/A   Partly Cloudy
11:35 PM 35.6 °F 29.2 °F 30.2 °F 81% 29.99 in 9.0 mi North 8.1 mph - N/A   Clear
11:55 PM 33.8 °F 27.7 °F 30.2 °F 87% 30.00 in 8.0 mi North 6.9 mph - N/A   Clear